When you browse on this site, cookies collect data to enhance your experience and personalize the content and advertising you see.
Visit our Privacy Policy to learn more. By continuing to use the site, you agree to this use of cookies and data.
  • In Österreich
  • Länderverzeichnis
  • Für 7 Tage
  • Wassertemperatur
  • Satellitenkarten
  • Wetterkarte
  • News
  • Widgets
  • user-avatar
    Anmelden

    Stündliche Wetter Vila-Real

    Heute, 25 Mai, Samstag

    Zeit Temperatur Niederschläge Wind Luftdruck Luftfeuchtigkeit
    00:00 +13°C° 0 mm 2 m/S 723 mmHg 70%
    01:00 +13°C° 0 mm 2 m/S 724 mmHg 71%
    02:00 +12°C° 0 mm 2 m/S 724 mmHg 72%
    03:00 +12°C° 0 mm 2 m/S 724 mmHg 73%
    04:00 +12°C° 0 mm 2 m/S 724 mmHg 75%
    05:00 +12°C° 0 mm 2 m/S 724 mmHg 76%
    06:00 +14°C° 0 mm 2 m/S 724 mmHg 68%
    07:00 +16°C° 0 mm 2 m/S 725 mmHg 59%
    08:00 +18°C° 0 mm 2 m/S 725 mmHg 51%
    09:00 +20°C° 0 mm 2 m/S 725 mmHg 46%
    10:00 +23°C° 0 mm 2 m/S 725 mmHg 40%
    11:00 +25°C° 0 mm 2 m/S 725 mmHg 35%
    12:00 +26°C° 0 mm 2 m/S 724 mmHg 34%
    13:00 +27°C° 0 mm 2 m/S 724 mmHg 33%
    14:00 +27°C° 0 mm 2 m/S 724 mmHg 32%
    15:00 +27°C° 0 mm 2 m/S 724 mmHg 36%
    16:00 +26°C° 0 mm 3 m/S 724 mmHg 39%
    17:00 +26°C° 0 mm 3 m/S 724 mmHg 43%
    18:00 +24°C° 0 mm 2 m/S 724 mmHg 50%
    19:00 +20°C° 0 mm 2 m/S 724 mmHg 57%
    20:00 +18°C° 0 mm 2 m/S 724 mmHg 64%
    21:00 +17°C° 0 mm 2 m/S 724 mmHg 66%
    22:00 +17°C° 0 mm 2 m/S 724 mmHg 68%
    23:00 +16°C° 0 mm 3 m/S 725 mmHg 70%

    Morgen, 26 Mai, Sonntag

    Zeit Temperatur Niederschläge Wind Luftdruck Luftfeuchtigkeit
    00:00 +15°C° 0 mm 2 m/S 724 mmHg 71%
    01:00 +15°C° 0 mm 2 m/S 724 mmHg 71%
    02:00 +14°C° 0 mm 2 m/S 724 mmHg 72%
    03:00 +14°C° 0 mm 2 m/S 724 mmHg 72%
    04:00 +14°C° 0 mm 2 m/S 724 mmHg 72%
    05:00 +13°C° 0 mm 1 m/S 724 mmHg 72%
    06:00 +16°C° 0 mm 1 m/S 724 mmHg 65%
    07:00 +19°C° 0 mm 1 m/S 725 mmHg 57%
    08:00 +21°C° 0 mm 1 m/S 725 mmHg 49%
    09:00 +23°C° 0 mm 1 m/S 725 mmHg 45%
    10:00 +25°C° 0 mm 1 m/S 725 mmHg 40%
    11:00 +27°C° 0 mm 1 m/S 725 mmHg 36%
    12:00 +28°C° 0 mm 2 m/S 724 mmHg 34%
    13:00 +29°C° 0 mm 2 m/S 724 mmHg 32%
    14:00 +29°C° 0 mm 2 m/S 724 mmHg 30%
    15:00 +29°C° 0 mm 2 m/S 723 mmHg 33%
    16:00 +28°C° 0 mm 3 m/S 723 mmHg 36%
    17:00 +28°C° 0 mm 3 m/S 723 mmHg 40%
    18:00 +25°C° 0 mm 3 m/S 723 mmHg 47%
    19:00 +23°C° 0 mm 2 m/S 723 mmHg 54%
    20:00 +21°C° 0 mm 1 m/S 723 mmHg 61%
    21:00 +20°C° 0 mm 1 m/S 723 mmHg 64%
    22:00 +18°C° 0 mm 2 m/S 723 mmHg 66%
    23:00 +17°C° 0 mm 2 m/S 723 mmHg 68%

    übermorgen, 27 Mai, Montag

    Zeit Temperatur Niederschläge Wind Luftdruck Luftfeuchtigkeit
    00:00 +17°C° 0 mm 2 m/S 722 mmHg 69%
    01:00 +16°C° 0 mm 2 m/S 722 mmHg 69%
    02:00 +16°C° 0 mm 2 m/S 722 mmHg 69%
    03:00 +16°C° 0 mm 1 m/S 722 mmHg 71%
    04:00 +16°C° 0 mm 1 m/S 722 mmHg 73%
    05:00 +16°C° 0 mm 1 m/S 722 mmHg 75%
    06:00 +19°C° 0 mm 1 m/S 722 mmHg 68%
    07:00 +22°C° 0 mm 1 m/S 722 mmHg 60%
    08:00 +24°C° 0 mm 1 m/S 722 mmHg 52%
    09:00 +26°C° 0 mm 1 m/S 722 mmHg 47%
    10:00 +27°C° 0 mm 1 m/S 722 mmHg 42%
    11:00 +29°C° 0 mm 1 m/S 722 mmHg 37%
    12:00 +29°C° 0 mm 1 m/S 721 mmHg 38%
    13:00 +28°C° 0 mm 1 m/S 721 mmHg 39%
    14:00 +27°C° 0 mm 2 m/S 720 mmHg 41%
    15:00 +27°C° 0 mm 2 m/S 720 mmHg 43%
    16:00 +26°C° 0 mm 3 m/S 720 mmHg 46%
    17:00 +26°C° 0 mm 3 m/S 720 mmHg 49%
    18:00 +24°C° 0 mm 3 m/S 720 mmHg 55%
    19:00 +20°C° 0 mm 2 m/S 720 mmHg 62%
    20:00 +18°C° 0 mm 2 m/S 721 mmHg 68%
    21:00 +18°C° 0 mm 2 m/S 721 mmHg 70%
    22:00 +17°C° 0 mm 3 m/S 721 mmHg 72%
    23:00 +16°C° 0 mm 3 m/S 721 mmHg 74%

    28 Mai, Dienstag

    Zeit Temperatur Niederschläge Wind Luftdruck Luftfeuchtigkeit
    00:00 +16°C° 0 mm 3 m/S 721 mmHg 75%
    01:00 +14°C° 0 mm 3 m/S 721 mmHg 76%
    02:00 +14°C° 0 mm 3 m/S 721 mmHg 78%
    03:00 +15°C° 0 mm 2 m/S 721 mmHg 78%
    04:00 +15°C° 0 mm 2 m/S 721 mmHg 78%
    05:00 +14°C° 0 mm 2 m/S 722 mmHg 79%
    06:00 +16°C° 0 mm 2 m/S 722 mmHg 72%
    07:00 +18°C° 0 mm 2 m/S 722 mmHg 65%
    08:00 +19°C° 0 mm 3 m/S 722 mmHg 58%
    09:00 +21°C° 0 mm 3 m/S 722 mmHg 52%
    10:00 +22°C° 0 mm 3 m/S 723 mmHg 45%
    11:00 +25°C° 0 mm 3 m/S 723 mmHg 38%
    12:00 +26°C° 0 mm 3 m/S 722 mmHg 36%
    13:00 +27°C° 0 mm 3 m/S 722 mmHg 33%
    14:00 +28°C° 0 mm 3 m/S 722 mmHg 30%
    15:00 +27°C° 0 mm 3 m/S 722 mmHg 32%
    16:00 +26°C° 0 mm 3 m/S 722 mmHg 34%
    17:00 +25°C° 0 mm 4 m/S 722 mmHg 36%
    18:00 +22°C° 0 mm 3 m/S 722 mmHg 41%
    19:00 +19°C° 0 mm 3 m/S 723 mmHg 46%
    20:00 +17°C° 0 mm 2 m/S 723 mmHg 51%
    21:00 +16°C° 0 mm 3 m/S 723 mmHg 52%
    22:00 +16°C° 0 mm 3 m/S 724 mmHg 53%
    23:00 +14°C° 0 mm 3 m/S 724 mmHg 55%

    29 Mai, Mittwoch

    Zeit Temperatur Niederschläge Wind Luftdruck Luftfeuchtigkeit
    00:00 +14°C° 0 mm 3 m/S 724 mmHg 58%
    01:00 +13°C° 0 mm 3 m/S 724 mmHg 62%
    02:00 +12°C° 0 mm 3 m/S 724 mmHg 65%
    03:00 +11°C° 0 mm 3 m/S 724 mmHg 67%
    04:00 +11°C° 0 mm 3 m/S 725 mmHg 69%
    05:00 +11°C° 0 mm 3 m/S 725 mmHg 70%
    06:00 +12°C° 0 mm 3 m/S 725 mmHg 64%
    07:00 +14°C° 0 mm 3 m/S 725 mmHg 57%
    08:00 +15°C° 0 mm 4 m/S 725 mmHg 50%
    09:00 +18°C° 0 mm 4 m/S 725 mmHg 45%
    10:00 +20°C° 0 mm 4 m/S 725 mmHg 39%
    11:00 +22°C° 0 mm 4 m/S 725 mmHg 34%
    12:00 +23°C° 0 mm 4 m/S 725 mmHg 31%
    13:00 +25°C° 0 mm 4 m/S 725 mmHg 29%
    14:00 +26°C° 0 mm 4 m/S 724 mmHg 26%
    15:00 +26°C° 0 mm 4 m/S 724 mmHg 27%
    16:00 +26°C° 0 mm 3 m/S 724 mmHg 28%
    17:00 +25°C° 0 mm 3 m/S 724 mmHg 29%
    18:00 +22°C° 0 mm 3 m/S 725 mmHg 33%
    19:00 +20°C° 0 mm 3 m/S 725 mmHg 37%
    20:00 +18°C° 0 mm 3 m/S 726 mmHg 41%
    21:00 +17°C° 0 mm 3 m/S 726 mmHg 46%
    22:00 +16°C° 0 mm 3 m/S 726 mmHg 51%
    23:00 +14°C° 0 mm 3 m/S 726 mmHg 56%

    30 Mai, Donnerstag

    Zeit Temperatur Niederschläge Wind Luftdruck Luftfeuchtigkeit
    00:00 +13°C° 0 mm 3 m/S 726 mmHg 57%
    01:00 +13°C° 0 mm 3 m/S 726 mmHg 59%
    02:00 +13°C° 0 mm 2 m/S 726 mmHg 60%
    03:00 +13°C° 0 mm 2 m/S 726 mmHg 60%
    04:00 +12°C° 0 mm 2 m/S 726 mmHg 60%
    05:00 +12°C° 0 mm 2 m/S 726 mmHg 60%
    06:00 +13°C° 0 mm 3 m/S 726 mmHg 52%
    07:00 +16°C° 0 mm 3 m/S 727 mmHg 44%
    08:00 +18°C° 0 mm 3 m/S 727 mmHg 36%
    09:00 +20°C° 0 mm 3 m/S 727 mmHg 31%
    10:00 +22°C° 0 mm 3 m/S 727 mmHg 27%
    11:00 +26°C° 0 mm 4 m/S 727 mmHg 23%
    12:00 +27°C° 0 mm 4 m/S 726 mmHg 22%
    13:00 +28°C° 0 mm 4 m/S 726 mmHg 20%
    14:00 +29°C° 0 mm 4 m/S 726 mmHg 19%
    15:00 +29°C° 0 mm 4 m/S 726 mmHg 21%
    16:00 +29°C° 0 mm 3 m/S 725 mmHg 23%
    17:00 +28°C° 0 mm 3 m/S 725 mmHg 25%
    18:00 +26°C° 0 mm 3 m/S 725 mmHg 28%
    19:00 +24°C° 0 mm 3 m/S 725 mmHg 32%
    20:00 +21°C° 0 mm 3 m/S 726 mmHg 35%
    21:00 +20°C° 0 mm 3 m/S 725 mmHg 40%
    22:00 +19°C° 0 mm 3 m/S 725 mmHg 45%
    23:00 +18°C° 0 mm 2 m/S 725 mmHg 51%
    Mehr zeigen